West Bend, WI

10:23 AM CDT on April 21, 2018 (GMT -0500)
West Bend Municipal

Weather History for KETB - September, 2012

Change the Weather History Date:

Saturday, September 29, 2012

  Actual Average Record
Temperature  
Mean Temperature 58 °F -  
Max Temperature 75 °F 66 °F 89 °F (1953)
Min Temperature 41 °F 45 °F 27 °F (1984)
Degree Days  
Heating Degree Days 7    
Growing Degree Days 8 (Base 50)    
Moisture  
Dew Point 41 °F    
Average Humidity 65    
Maximum Humidity 100    
Minimum Humidity 22    
Precipitation  
Precipitation 0.00 in - - ()
Sea Level Pressure  
Sea Level Pressure 30.05 in    
Wind  
Wind Speed 2 mph (NNE)    
Max Wind Speed 12 mph    
Max Gust Speed 16 mph    
Visibility 10 miles    
Events      
Averages and records for this station are not official NWS values.
T = Trace of Precipitation, MM = Missing Value Source: NWS Daily Summary

Daily Weather History Graph

Daily Weather History Graph

Search for Another Location

Airport or City:

Astronomy

Sep. 29, 2012 Rise Set
Actual Time 6:48 AM CDT 6:36 PM CDT
Civil Twilight 6:19 AM CDT 7:04 PM CDT
Nautical Twilight 5:46 AM CDT 7:37 PM CDT
Astronomical Twilight 5:12 AM CDT 8:11 PM CDT
Moon 6:07 PM CDT (9/29) 6:19 AM CDT (9/29)
Length of Visible Light 12h 44m
Length of Day
11h 48m
Full, 100% of the Moon is Illuminated
Sep 29
Full
Sep 29
Full
Oct 8
Last Quarter
Oct 15
New
Oct 21
First Quarter

Hourly Weather History & Observations

Time (CDT) Temp. Dew Point Humidity Pressure Visibility Wind Dir Wind Speed Gust Speed Precip Events Conditions
12:35 AM 44.6 °F 42.8 °F 93% 30.10 in 10.0 mi Calm Calm - N/A   Clear
12:55 AM 44.6 °F 41.0 °F 87% 30.10 in 10.0 mi Calm Calm - N/A   Clear
1:35 AM 42.8 °F 42.8 °F 100% 30.10 in 10.0 mi Calm Calm - N/A   Clear
1:55 AM 42.8 °F 41.0 °F 93% 30.10 in 10.0 mi Calm Calm - N/A   Clear
2:15 AM 42.8 °F 41.0 °F 93% 30.10 in 10.0 mi Calm Calm - N/A   Clear
2:35 AM 41.0 °F 41.0 °F 100% 30.09 in 10.0 mi Calm Calm - N/A   Clear
2:55 AM 41.0 °F 41.0 °F 100% 30.09 in 10.0 mi Calm Calm - N/A   Clear
3:55 AM 41.0 °F 39.2 °F 93% 30.09 in 10.0 mi Calm Calm - N/A   Clear
4:15 AM 41.0 °F 39.2 °F 93% 30.08 in 10.0 mi Calm Calm - N/A   Clear
4:35 AM 41.0 °F 39.2 °F 93% 30.08 in 10.0 mi Calm Calm - N/A   Clear
4:55 AM 41.0 °F 39.2 °F 93% 30.08 in 10.0 mi Calm Calm - N/A   Clear
5:15 AM 41.0 °F 41.0 °F 100% 30.08 in 10.0 mi Calm Calm - N/A   Clear
5:35 AM 42.8 °F 41.0 °F 93% 30.08 in 10.0 mi Calm Calm - N/A   Clear
5:55 AM 42.8 °F 41.0 °F 93% 30.08 in 10.0 mi Calm Calm - N/A   Clear
6:15 AM 46.4 °F 39.2 °F 76% 30.08 in 10.0 mi Calm Calm - N/A   Clear
6:35 AM 46.4 °F 39.2 °F 76% 30.08 in 10.0 mi Calm Calm - N/A   Clear
6:55 AM 48.2 °F 39.2 °F 71% 30.08 in 10.0 mi Calm Calm - N/A   Clear
7:15 AM 48.2 °F 37.4 °F 66% 30.08 in 10.0 mi Calm Calm - N/A   Clear
7:35 AM 50.0 °F 39.2 °F 66% 30.08 in 10.0 mi Calm Calm - N/A   Clear
7:55 AM 48.2 °F 42.8 °F 82% 30.08 in 10.0 mi Calm Calm - N/A   Clear
8:35 AM 57.2 °F 41.0 °F 55% 30.08 in 10.0 mi WNW 5.8 mph - N/A   Clear
8:55 AM 59.0 °F 41.0 °F 51% 30.08 in 10.0 mi West 5.8 mph - N/A   Clear
9:15 AM 62.6 °F 41.0 °F 45% 30.08 in 10.0 mi WNW 5.8 mph - N/A   Clear
9:55 AM 64.4 °F 41.0 °F 42% 30.08 in 10.0 mi WNW 6.9 mph - N/A   Clear
10:15 AM 66.2 °F 37.4 °F 35% 30.07 in 10.0 mi NW 6.9 mph - N/A   Clear
10:35 AM 68.0 °F 37.4 °F 33% 30.06 in 10.0 mi NNW 6.9 mph - N/A   Clear
10:55 AM 69.8 °F 37.4 °F 31% 30.06 in 10.0 mi NNW 6.9 mph - N/A   Clear
11:35 AM 71.6 °F 35.6 °F 27% 30.05 in 10.0 mi North 6.9 mph - N/A   Clear
11:55 AM 73.4 °F 35.6 °F 25% 30.04 in 10.0 mi NW 5.8 mph - N/A   Clear
12:15 PM 73.4 °F 35.6 °F 25% 30.04 in 10.0 mi NNE 4.6 mph - N/A   Clear
12:35 PM 73.4 °F 33.8 °F 23% 30.03 in 10.0 mi NW 6.9 mph - N/A   Clear
12:55 PM 73.4 °F 33.8 °F 23% 30.02 in 10.0 mi NNE 8.1 mph - N/A   Clear
1:15 PM 75.2 °F 33.8 °F 22% 30.01 in 10.0 mi North 9.2 mph - N/A   Clear
1:35 PM 75.2 °F 35.6 °F 24% 30.01 in 10.0 mi NW 9.2 mph - N/A   Clear
1:55 PM 75.2 °F 37.4 °F 25% 30.00 in 10.0 mi East 6.9 mph - N/A   Clear
2:15 PM 73.4 °F 41.0 °F 31% 30.00 in 10.0 mi ENE 11.5 mph - N/A   Clear
2:35 PM 71.6 °F 42.8 °F 35% 30.00 in 10.0 mi East 10.4 mph 16.1 mph N/A   Clear
2:55 PM 71.6 °F 44.6 °F 38% 30.01 in 10.0 mi East 9.2 mph 16.1 mph N/A   Clear
3:15 PM 71.6 °F 46.4 °F 41% 30.00 in 10.0 mi East 10.4 mph 16.1 mph N/A   Clear
3:35 PM 69.8 °F 46.4 °F 43% 30.00 in 10.0 mi East 11.5 mph - N/A   Clear
3:55 PM 69.8 °F 46.4 °F 43% 30.00 in 10.0 mi East 10.4 mph 16.1 mph N/A   Clear
4:15 PM 68.0 °F 48.2 °F 49% 30.00 in 10.0 mi East 9.2 mph 16.1 mph N/A   Clear
4:35 PM 68.0 °F 44.6 °F 43% 30.01 in 10.0 mi ENE 11.5 mph - N/A   Clear
4:55 PM 68.0 °F 42.8 °F 40% 30.01 in 10.0 mi East 11.5 mph - N/A   Clear
5:55 PM 62.6 °F 41.0 °F 45% 30.01 in 10.0 mi ENE 11.5 mph - N/A   Clear
6:15 PM 60.8 °F 42.8 °F 52% 30.02 in 10.0 mi ENE 5.8 mph - N/A   Clear
6:55 PM 57.2 °F 42.8 °F 59% 30.02 in 10.0 mi ENE 4.6 mph - N/A   Clear
7:55 PM 53.6 °F 44.6 °F 72% 30.02 in 10.0 mi Calm Calm - N/A   Clear
8:15 PM 51.8 °F 44.6 °F 76% 30.03 in 10.0 mi Calm Calm - N/A   Clear
8:35 PM 50.0 °F 44.6 °F 82% 30.03 in 10.0 mi Calm Calm - N/A   Clear
8:55 PM 50.0 °F 44.6 °F 82% 30.02 in 10.0 mi Calm Calm - N/A   Clear
9:15 PM 48.2 °F 44.6 °F 87% 30.03 in 10.0 mi Calm Calm - N/A   Clear
9:35 PM 46.4 °F 44.6 °F 93% 30.02 in 10.0 mi Calm Calm - N/A   Clear
9:55 PM 46.4 °F 44.6 °F 93% 30.02 in 10.0 mi Calm Calm - N/A   Clear
10:15 PM 44.6 °F 44.6 °F 100% 30.03 in 10.0 mi Calm Calm - N/A   Clear
10:35 PM 44.6 °F 42.8 °F 93% 30.03 in 10.0 mi Calm Calm - N/A   Clear
10:55 PM 44.6 °F 42.8 °F 93% 30.03 in 10.0 mi Calm Calm - N/A   Clear
11:15 PM 44.6 °F 42.8 °F 93% 30.03 in 10.0 mi Calm Calm - N/A   Clear
11:35 PM 42.8 °F 42.8 °F 100% 30.03 in 10.0 mi Calm Calm - N/A   Clear
11:55 PM 44.6 °F 42.8 °F 93% 30.03 in 10.0 mi Calm Calm - N/A   Clear